LEMUR-2-SQUAREJAWS (46317 NORAD) Tracking and Keplerian Element Data

This shows tracking and keplerian element data for the satellite.

Feedback or suggestion? Click here.




ElementValue
Catalog46317
NameLEMUR-2-SQUAREJAWS
Epoch Orbit306
Epoch Day267.47612977
Epoch Year2020
RAAN340.2601
Inclination97.5183
Eccentricity0.0003003
Argument of Perigee151.044
Mean Anonmoly209.0957
Mean Motion15.10930031
Decay Rate1.327E-05
L11 46317U 20061AX 20267.47612977 .00001327 00000-0 83433-4 0 9998
L22 46317 97.5183 340.2601 0003003 151.0440 209.0957 15.10930031 3067

Live tracking and technical data element details for LEMUR-2-SQUAREJAWS (NORAD 46317). LEMUR-2-SQUAREJAWS can be tracked NOW for your location showing map with azimuth and elevation plus other details from your city location.

Track the satellite on the map from your city or location and see movement details for azimuth, elevation, latitude, longitude, range, height, and movement on the map or in text.







IsCatalogInMostPopularTable: catalog: 46317, numindb: 2
Update: records affected: 1



GetName: 46317 LEMUR-2-SQUAREJAWS

Hit Count: updated at: Thu, 24 Sep 2020 18:40:07 GMT